SM4IVE-5 Weather Reports


Display with metric or nautical units.
time (UTC)temp
F
wind
direction
speed
MPH
gust
MPH
rain 1hr
in
rain 24hr
in
rain mn
in
humidity
%
barometer
mb
20260507134824 60 84 3.0 10.0 0.00 0.00 0.00 43 1015.8
20260507134330 60 121 5.0 11.0 0.00 0.00 0.00 43 1015.9
20260507133846 60 95 4.0 11.0 0.00 0.00 0.00 42 1015.8
20260507133325 59 51 3.0 6.0 0.00 0.00 0.00 45 1015.8
20260507132824 59 76 2.0 8.0 0.00 0.00 0.00 44 1015.8
20260507132325 59 47 3.0 8.0 0.00 0.00 0.00 41 1015.8
20260507131825 60 360 3.0 6.0 0.00 0.00 0.00 40 1015.8
20260507131326 61 16 1.0 7.0 0.00 0.00 0.00 41 1015.8
20260507130826 61 43 4.0 7.0 0.00 0.00 0.00 39 1015.8
20260507130327 62 11 2.0 8.0 0.00 0.00 0.00 39 1015.8
20260507125827 62 18 3.0 13.0 0.00 0.00 0.00 40 1015.8
20260507125327 62 24 5.0 13.0 0.00 0.00 0.00 41 1015.6
20260507124828 62 105 2.0 8.0 0.00 0.00 0.00 40 1015.7
20260507124328 62 355 3.0 5.0 0.00 0.00 0.00 39 1015.7
20260507123828 61 41 1.0 7.0 0.00 0.00 0.00 40 1015.7
20260507123349 61 40 1.0 6.0 0.00 0.00 0.00 41 1015.7
20260507122830 61 355 2.0 8.0 0.00 0.00 0.00 41 1015.6
20260507122331 61 350 5.0 8.0 0.00 0.00 0.00 42 1015.6
20260507121852 61 87 1.0 7.0 0.00 0.00 0.00 43 1015.6
20260507121331 61 137 3.0 8.0 0.00 0.00 0.00 45 1015.6
20260507120831 60 122 4.0 8.0 0.00 0.00 0.00 44 1015.6
20260507120352 60 54 3.0 9.0 0.00 0.00 0.00 43 1015.6
20260507115852 61 13 4.0 9.0 0.00 0.00 0.00 41 1015.7
20260507115332 61 45 5.0 8.0 0.00 0.00 0.00 43 1015.6
20260507114832 61 19 4.0 9.0 0.00 0.00 0.00 42 1015.6
20260507114331 61 5 3.0 9.0 0.00 0.00 0.00 44 1015.6
20260507113831 61 360 2.0 12.0 0.00 0.00 0.00 43 1015.6
20260507113331 62 330 5.0 12.0 0.00 0.00 0.00 42 1015.6
20260507112840 62 69 2.0 9.0 0.00 0.00 0.00 41 1015.6
20260507112328 62 163 3.0 6.0 0.00 0.00 0.00 43 1015.7
20260507111828 61 307 3.0 8.0 0.00 0.00 0.00 40 1015.7
20260507111349 61 355 2.0 9.0 0.00 0.00 0.00 40 1015.6
20260507110829 62 117 6.0 9.0 0.00 0.00 0.00 42 1015.6
20260507110328 62 55 3.0 8.0 0.00 0.00 0.00 40 1015.6
20260507105829 62 349 4.0 8.0 0.00 0.00 0.00 41 1015.6
20260507105346 62 323 3.0 5.0 0.00 0.00 0.00 43 1015.5
20260507104833 61 104 1.0 5.0 0.00 0.00 0.00 45 1015.6
20260507104340 61 78 2.0 5.0 0.00 0.00 0.00 45 1015.5
20260507103829 60 360 2.0 6.0 0.00 0.00 0.00 44 1015.5
20260507103336 60 65 4.0 6.0 0.00 0.00 0.00 45 1015.4
20260507102824 60 336 2.0 5.0 0.00 0.00 0.00 49 1015.4
20260507102345 60 297 1.0 5.0 0.00 0.00 0.00 47 1015.4
20260507101824 60 355 2.0 5.0 0.00 0.00 0.00 47 1015.5
20260507101325 59 34 1.0 8.0 0.00 0.00 0.00 48 1015.4
20260507100826 59 360 3.0 8.0 0.00 0.00 0.00 48 1015.4
20260507100327 59 37 3.0 8.0 0.00 0.00 0.00 48 1015.3
20260507095827 58 57 3.0 8.0 0.00 0.00 0.00 49 1015.3
20260507095348 58 42 3.0 6.0 0.00 0.00 0.00 51 1015.2
20260507094827 58 323 3.0 9.0 0.00 0.00 0.00 50 1015.3
20260507094328 58 355 4.0 9.0 0.00 0.00 0.00 52 1015.2
20260507093849 58 350 3.0 8.0 0.00 0.00 0.00 49 1015.2
20260507093349 59 360 3.0 10.0 0.00 0.00 0.00 49 1015.2
20260507092829 59 345 3.0 10.0 0.00 0.00 0.00 49 1015.2
20260507092330 60 337 2.0 6.0 0.00 0.00 0.00 50 1015.2
20260507091850 59 86 2.0 6.0 0.00 0.00 0.00 48 1015.2
20260507091330 59 360 3.0 8.0 0.00 0.00 0.00 48 1015.1
20260507090831 59 53 3.0 8.0 0.00 0.00 0.00 47 1015.1
20260507090331 59 350 1.0 6.0 0.00 0.00 0.00 48 1015.1
20260507085840 58 169 3.0 6.0 0.00 0.00 0.00 50 1015.1
20260507085329 57 144 3.0 5.0 0.00 0.00 0.00 51 1015.2
20260507084830 56 114 3.0 6.0 0.00 0.00 0.00 54 1015.2
20260507084351 55 161 1.0 5.0 0.00 0.00 0.00 55 1015.2
20260507083830 55 313 3.0 5.0 0.00 0.00 0.00 52 1015.2
20260507083331 55 53 2.0 6.0 0.00 0.00 0.00 51 1015.3
20260507082831 54 52 3.0 6.0 0.00 0.00 0.00 53 1015.2
20260507082332 54 360 2.0 4.0 0.00 0.00 0.00 53 1015.2
20260507081832 54 355 2.0 4.0 0.00 0.00 0.00 55 1015.2
20260507081340 54 349 1.0 3.0 0.00 0.00 0.00 54 1015.2
20260507080828 53 346 0.0 3.0 0.00 0.00 0.00 58 1015.2
20260507080330 52 345 1.0 3.0 0.00 0.00 0.00 56 1015.2
20260507075829 52 292 2.0 4.0 0.00 0.00 0.00 55 1015.2
20260507075331 52 292 2.0 4.0 0.00 0.00 0.00 55 1015.2
20260507074830 51 249 1.0 3.0 0.00 0.00 0.00 57 1015.2
20260507074351 51 138 1.0 3.0 0.00 0.00 0.00 57 1015.2
20260507073831 49 138 1.0 7.0 0.00 0.00 0.00 63 1015.2
20260507073339 48 136 3.0 7.0 0.00 0.00 0.00 65 1015.1
20260507072828 47 123 3.0 7.0 0.00 0.00 0.00 67 1015.1
20260507072329 46 150 2.0 7.0 0.00 0.00 0.00 70 1015.1
20260507071830 44 168 2.0 5.0 0.00 0.00 0.00 72 1015.1
20260507071351 43 168 2.0 3.0 0.00 0.00 0.00 75 1015.2
20260507070837 43 287 0.0 2.0 0.00 0.00 0.00 78 1015.1
20260507070325 43 288 0.0 0.0 0.00 0.00 0.00 79 1015.2
20260507065833 43 288 0.0 1.0 0.00 0.00 0.00 80 1015.1
20260507065339 43 288 0.0 1.0 0.00 0.00 0.00 81 1015.1
20260507064828 42 288 0.0 1.0 0.00 0.00 0.00 81 1015.0
20260507064329 42 288 1.0 1.0 0.00 0.00 0.00 84 1015.0
20260507063830 42 288 0.0 2.0 0.00 0.00 0.00 83 1015.0
20260507063351 42 288 1.0 2.0 0.00 0.00 0.00 82 1014.9
20260507062831 42 288 1.0 2.0 0.00 0.00 0.00 82 1015.0
20260507062331 42 288 0.0 0.0 0.00 0.00 0.00 84 1014.9
20260507061831 42 288 0.0 0.0 0.00 0.00 0.00 83 1014.9
20260507061331 42 288 0.0 0.0 0.00 0.00 0.00 82 1014.8
20260507060832 42 288 0.0 0.0 0.00 0.00 0.00 82 1014.8
20260507060400 42 288 0.0 0.0 0.00 0.00 0.00 81 1014.7
20260507055829 42 288 0.0 0.0 0.00 0.00 0.00 79 1014.7
20260507055329 43 288 0.0 1.0 0.00 0.00 0.00 78 1014.7
20260507054829 43 288 0.0 1.0 0.00 0.00 0.00 78 1014.7
20260507054346 43 288 1.0 2.0 0.00 0.00 0.00 76 1014.7
20260507053826 43 288 1.0 2.0 0.00 0.00 0.00 75 1014.6
20260507053326 43 288 1.0 2.0 0.00 0.00 0.00 74 1014.5
20260507052827 43 286 0.0 2.0 0.00 0.00 0.00 74 1014.5
20260507052347 43 286 2.0 2.0 0.00 0.00 0.00 73 1014.4
20260507051848 43 286 0.0 2.0 0.00 0.00 0.00 71 1014.4
20260507051329 42 286 1.0 2.0 0.00 0.00 0.00 72 1014.4
20260507050849 42 286 0.0 2.0 0.00 0.00 0.00 74 1014.3
20260507050329 41 287 1.0 2.0 0.00 0.00 0.00 76 1014.3
20260507045835 41 287 0.0 0.0 0.00 0.00 0.00 78 1014.2
20260507045325 40 287 0.0 1.0 0.00 0.00 0.00 79 1014.3
20260507044826 40 287 0.0 1.0 0.00 0.00 0.00 82 1014.3
20260507044326 40 287 0.0 2.0 0.00 0.00 0.00 80 1014.3
20260507043826 39 287 1.0 2.0 0.00 0.00 0.00 79 1014.2
20260507043327 39 287 0.0 2.0 0.00 0.00 0.00 78 1014.2
20260507042835 39 287 1.0 2.0 0.00 0.00 0.00 80 1014.2
20260507042325 39 287 0.0 1.0 0.00 0.00 0.00 80 1014.1
20260507041825 38 287 0.0 2.0 0.00 0.00 0.00 82 1014.0
20260507041331 38 287 0.0 2.0 0.00 0.00 0.00 82 1014.1
20260507040840 37 160 1.0 2.0 0.00 0.00 0.00 82 1014.0
20260507040328 37 160 1.0 2.0 0.00 0.00 0.00 80 1013.9
20260507035836 37 160 0.0 0.0 0.00 0.00 0.00 82 1013.9
20260507035324 37 160 0.0 0.0 0.00 0.00 0.00 80 1013.8
20260507034824 36 160 0.0 0.0 0.00 0.00 0.00 80 1013.7
20260507034346 36 160 0.0 0.0 0.00 0.00 0.00 80 1013.8
20260507033826 36 160 0.0 0.0 0.00 0.00 0.00 81 1013.7
20260507033325 36 160 0.0 0.0 0.00 0.00 0.00 81 1013.8
20260507032826 36 160 0.0 0.0 0.00 0.00 0.00 82 1013.7
20260507032335 36 160 0.0 0.0 0.00 0.00 0.00 80 1013.8
20260507031825 36 160 0.0 0.0 0.00 0.00 0.00 80 1013.8
20260507031346 36 160 0.0 0.0 0.00 0.00 0.00 78 1013.7
20260507030826 37 160 0.0 0.0 0.00 0.00 0.00 78 1013.8
20260507030335 37 160 0.0 0.0 0.00 0.00 0.00 77 1013.8
20260507025824 37 160 0.0 0.0 0.00 0.00 0.00 78 1013.8
20260507025326 37 160 0.0 0.0 0.00 0.00 0.00 77 1013.8
20260507024827 37 160 0.0 0.0 0.00 0.00 0.00 76 1013.8
20260507024328 38 160 0.0 0.0 0.00 0.00 0.00 75 1013.8
20260507023849 38 160 0.0 0.0 0.00 0.00 0.00 74 1013.8
20260507023349 38 160 0.0 0.0 0.00 0.00 0.00 72 1013.8
20260507022828 38 160 0.0 3.0 0.00 0.00 0.00 72 1013.8
20260507022349 38 160 1.0 5.0 0.00 0.00 0.00 71 1013.8
20260507021829 38 180 2.0 6.0 0.00 0.00 0.00 69 1013.7
20260507021350 38 195 1.0 6.0 0.00 0.00 0.00 69 1013.7
20260507020830 38 196 0.0 2.0 0.00 0.00 0.00 71 1013.7
20260507020331 39 196 1.0 2.0 0.00 0.00 0.00 71 1013.7
20260507015831 39 196 1.0 2.0 0.00 0.00 0.00 69 1013.7
20260507015352 39 196 0.0 1.0 0.00 0.00 0.00 68 1013.7
20260507014831 40 196 0.0 1.0 0.00 0.00 0.00 66 1013.6
20260507014329 40 196 1.0 2.0 0.00 0.00 0.00 64 1013.6
20260507013839 40 196 0.0 2.0 0.00 0.00 0.00 63 1013.7
20260507013328 41 196 0.0 3.0 0.00 0.00 0.00 62 1013.6
20260507012829 41 259 1.0 5.0 0.00 0.00 0.00 62 1013.5
20260507012330 41 200 1.0 9.0 0.00 0.00 0.00 61 1013.5
20260507011830 41 176 3.0 9.0 0.00 0.00 0.00 61 1013.3
20260507011331 41 125 3.0 9.0 0.00 0.00 0.00 61 1013.3
20260507010832 41 186 4.0 14.0 0.00 0.00 0.00 61 1013.3
20260507010330 41 192 3.0 14.0 0.00 0.00 0.00 60 1013.3
20260507005850 41 210 5.0 11.0 0.00 0.00 0.00 60 1013.3
20260507005350 41 182 4.0 9.0 0.00 0.00 0.00 60 1013.3
20260507004830 41 148 4.0 10.0 0.00 0.00 0.00 60 1013.2
20260507004350 42 156 5.0 10.0 0.00 0.00 0.00 60 1013.2
20260507003825 42 184 4.0 9.0 0.00 0.00 0.00 59 1013.3
20260507003325 42 175 4.0 11.0 0.00 0.00 0.00 59 1013.3
20260507002853 42 188 5.0 11.0 0.00 0.00 0.00 59 1013.3
20260507002341 42 184 5.0 9.0 0.00 0.00 0.00 58 1013.3
20260507001829 42 142 4.0 11.0 0.00 0.00 0.00 58 1013.2
20260507001329 42 216 5.0 10.0 0.00 0.00 0.00 58 1013.3
20260507000849 42 169 4.0 11.0 0.00 0.00 0.00 58 1013.3
20260507000328 42 198 4.0 11.0 0.00 0.00 0.00 58 1013.2
20260506235829 42 220 3.0 11.0 0.00 0.00 0.00 58 1013.3
20260506235328 42 167 3.0 13.0 0.00 0.00 0.00 59 1013.2
20260506234829 42 149 5.0 10.0 0.00 0.00 0.00 59 1013.2
20260506234337 42 154 5.0 8.0 0.00 0.00 0.00 58 1013.2
20260506233825 42 180 4.0 8.0 0.00 0.00 0.00 58 1013.3
20260506233335 42 217 4.0 10.0 0.00 0.00 0.00 58 1013.3
20260506232824 42 186 5.0 11.0 0.00 0.00 0.00 58 1013.3
20260506232330 42 188 5.0 11.0 0.00 0.00 0.00 58 1013.3
20260506231831 42 194 4.0 8.0 0.00 0.00 0.00 59 1013.3
20260506231330 42 154 5.0 10.0 0.00 0.00 0.00 59 1013.2
20260506230830 42 171 6.0 10.0 0.00 0.00 0.00 58 1013.2
20260506230330 42 155 7.0 14.0 0.00 0.00 0.00 58 1013.2
20260506225830 42 155 6.0 14.0 0.00 0.00 0.00 58 1013.3
20260506225352 42 177 5.0 11.0 0.00 0.00 0.00 58 1013.2
20260506224851 42 187 5.0 10.0 0.00 0.00 0.00 58 1013.2
20260506224350 43 166 5.0 11.0 0.00 0.00 0.00 57 1013.2
20260506223830 43 159 5.0 11.0 0.00 0.00 0.00 56 1013.2
20260506223339 43 191 5.0 17.0 0.00 0.00 0.00 56 1013.1
20260506222828 43 184 4.0 17.0 0.00 0.00 0.00 56 1013.1
20260506222329 43 125 5.0 11.0 0.00 0.00 0.00 56 1013.1
20260506221829 43 200 5.0 10.0 0.00 0.00 0.00 55 1013.1
20260506221328 43 188 4.0 12.0 0.00 0.00 0.00 55 1013.1
20260506220837 43 147 5.0 12.0 0.00 0.00 0.00 55 1013.1
20260506220325 43 161 5.0 10.0 0.00 0.00 0.00 54 1013.1
20260506215853 44 180 4.0 12.0 0.00 0.00 0.00 54 1013.0
20260506215333 44 188 4.0 10.0 0.00 0.00 0.00 53 1013.0
20260506214901 44 171 6.0 12.0 0.00 0.00 0.00 53 1013.0
20260506214328 44 195 6.0 12.0 0.00 0.00 0.00 52 1013.0
20260506213857 44 149 5.0 10.0 0.00 0.00 0.00 53 1012.9
20260506213325 44 204 6.0 10.0 0.00 0.00 0.00 52 1012.9
20260506212853 44 130 5.0 8.0 0.00 0.00 0.00 51 1012.9
20260506212353 44 190 5.0 12.0 0.00 0.00 0.00 51 1012.9
20260506211852 45 172 5.0 12.0 0.00 0.00 0.00 50 1012.8
20260506211332 45 176 5.0 10.0 0.00 0.00 0.00 50 1012.8
20260506210827 45 160 6.0 10.0 0.00 0.00 0.00 50 1012.7
20260506210336 45 199 4.0 10.0 0.00 0.00 0.00 50 1012.7
20260506205829 45 173 4.0 10.0 0.00 0.00 0.00 49 1012.7
20260506205330 45 182 5.0 10.0 0.00 0.00 0.00 49 1012.8
20260506204831 45 153 4.0 11.0 0.00 0.00 0.00 50 1012.8
20260506204327 45 150 5.0 14.0 0.00 0.00 0.00 49 1012.7
20260506203856 45 211 4.0 14.0 0.00 0.00 0.00 48 1012.7
20260506203343 46 172 4.0 10.0 0.00 0.00 0.00 49 1012.6
20260506202832 46 198 4.0 13.0 0.00 0.00 0.00 48 1012.7
20260506202324 46 186 4.0 14.0 0.00 0.00 0.00 47 1012.6
20260506201849 46 176 5.0 9.0 0.00 0.00 0.00 47 1012.6
20260506201335 46 171 4.0 8.0 0.00 0.00 0.00 47 1012.6
20260506200828 46 175 4.0 9.0 0.00 0.00 0.00 46 1012.6
20260506200329 46 164 4.0 10.0 0.00 0.00 0.00 46 1012.6
20260506195829 47 160 5.0 10.0 0.00 0.00 0.00 46 1012.5
20260506195326 47 183 4.0 11.0 0.00 0.00 0.00 46 1012.4
20260506194825 47 183 4.0 11.0 0.00 0.00 0.00 45 1012.5
20260506194326 47 157 4.0 9.0 0.00 0.00 0.00 45 1012.5
20260506193827 48 159 4.0 10.0 0.00 0.00 0.00 45 1012.5
20260506193336 48 163 4.0 10.0 0.00 0.00 0.00 44 1012.5
20260506192828 48 195 6.0 9.0 0.00 0.00 0.00 44 1012.5
20260506192345 48 140 4.0 10.0 0.00 0.00 0.00 44 1012.5
20260506191825 48 184 4.0 11.0 0.00 0.00 0.00 43 1012.4
20260506191326 49 167 4.0 11.0 0.00 0.00 0.00 43 1012.4
20260506190835 49 152 4.0 9.0 0.00 0.00 0.00 42 1012.4
20260506190329 49 148 5.0 9.0 0.00 0.00 0.00 41 1012.5
20260506185830 49 183 4.0 10.0 0.00 0.00 0.00 40 1012.4
20260506185347 50 184 4.0 10.0 0.00 0.00 0.00 40 1012.3
20260506184826 50 172 2.0 13.0 0.00 0.00 0.00 39 1012.3
20260506184326 50 172 4.0 13.0 0.00 0.00 0.00 38 1012.2
20260506183847 50 156 5.0 10.0 0.00 0.00 0.00 37 1012.2
20260506183327 51 156 5.0 11.0 0.00 0.00 0.00 36 1012.1
20260506182835 51 150 6.0 11.0 0.00 0.00 0.00 36 1012.1
20260506182324 51 198 6.0 14.0 0.00 0.00 0.00 37 1012.1
20260506181824 51 140 7.0 14.0 0.00 0.00 0.00 37 1012.0
20260506181324 51 160 6.0 10.0 0.00 0.00 0.00 36 1012.0
20260506180826 51 171 6.0 10.0 0.00 0.00 0.00 36 1012.0
20260506180327 52 152 5.0 12.0 0.00 0.00 0.00 36 1012.0
20260506175827 52 145 6.0 12.0 0.00 0.00 0.00 36 1012.0
20260506175348 52 143 6.0 10.0 0.00 0.00 0.00 37 1011.9
20260506174847 53 102 6.0 10.0 0.00 0.00 0.00 35 1011.8
20260506174327 53 122 5.0 11.0 0.00 0.00 0.00 34 1011.8
20260506173828 53 199 6.0 15.0 0.00 0.00 0.00 33 1011.7
20260506173328 54 196 6.0 17.0 0.00 0.00 0.00 33 1011.7
20260506172829 54 169 7.0 18.0 0.00 0.00 0.00 32 1011.7
20260506172357 54 168 9.0 16.0 0.00 0.00 0.00 33 1011.6
20260506171825 54 154 8.0 16.0 0.00 0.00 0.00 32 1011.6
20260506171326 55 155 4.0 15.0 0.00 0.00 0.00 34 1011.5
20260506170827 55 126 8.0 20.0 0.00 0.00 0.00 32 1011.5
20260506170326 55 173 9.0 20.0 0.00 0.00 0.00 34 1011.7
20260506165826 55 122 5.0 10.0 0.00 0.00 0.00 34 1011.4
20260506165327 56 137 5.0 11.0 0.00 0.00 0.00 35 1011.4
20260506164836 56 136 6.0 11.0 0.00 0.00 0.00 34 1011.3
20260506164324 56 149 7.0 11.0 0.00 0.00 0.00 34 1011.3
20260506163825 56 192 6.0 15.0 0.00 0.00 0.00 35 1011.3
20260506163326 56 153 7.0 15.0 0.00 0.00 0.00 34 1011.3
20260506162826 56 121 5.0 11.0 0.00 0.00 0.00 36 1011.2
20260506162336 57 133 6.0 9.0 0.00 0.00 0.00 36 1011.3
20260506161825 56 133 3.0 7.0 0.00 0.00 0.00 32 1011.3
20260506161326 56 75 4.0 8.0 0.00 0.00 0.00 36 1011.2
20260506160826 56 63 4.0 8.0 0.00 0.00 0.00 36 1011.2
20260506160327 56 118 4.0 7.0 0.00 0.00 0.00 35 1011.3
20260506155827 56 88 2.0 8.0 0.00 0.00 0.00 35 1011.3
20260506155327 56 112 4.0 10.0 0.00 0.00 0.00 33 1011.4
20260506154828 56 93 6.0 8.0 0.00 0.00 0.00 32 1011.4
20260506154348 57 169 2.0 8.0 0.00 0.00 0.00 29 1011.5
20260506153857 58 138 2.0 8.0 0.00 0.00 0.00 32 1011.5
20260506153325 58 36 2.0 7.0 0.00 0.00 0.00 28 1011.4
20260506152825 58 90 3.0 6.0 0.00 0.00 0.00 35 1011.5
20260506152326 57 16 2.0 4.0 0.00 0.00 0.00 29 1011.6
20260506151826 57 142 2.0 4.0 0.00 0.00 0.00 31 1011.6
20260506151327 57 177 2.0 5.0 0.00 0.00 0.00 28 1011.5
20260506150828 57 222 1.0 10.0 0.00 0.00 0.00 27 1011.5
20260506150329 58 112 4.0 10.0 0.00 0.00 0.00 29 1011.6
20260506145829 58 252 2.0 8.0 0.00 0.00 0.00 28 1011.5
20260506145330 58 179 3.0 10.0 0.00 0.00 0.00 28 1011.6
20260506144830 58 160 5.0 10.0 0.00 0.00 0.00 28 1011.7
20260506144330 58 178 5.0 8.0 0.00 0.00 0.00 28 1011.6
20260506143831 58 169 1.0 6.0 0.00 0.00 0.00 29 1011.6
20260506143352 58 193 2.0 5.0 0.00 0.00 0.00 27 1011.6
20260506142831 58 147 1.0 12.0 0.00 0.00 0.00 28 1011.7
20260506142352 58 90 3.0 16.0 0.00 0.00 0.00 32 1011.9
20260506141852 58 114 2.0 10.0 0.00 0.00 0.00 28 1011.7
20260506141331 58 172 5.0 9.0 0.00 0.00 0.00 28 1011.8
20260506140839 58 113 4.0 11.0 0.00 0.00 0.00 32 1011.8
20260506140328 58 165 5.0 11.0 0.00 0.00 0.00 30 1011.8
20260506135836 58 55 4.0 11.0 0.00 0.00 0.00 31 1011.9
20260506135324 58 126 6.0 13.0 0.00 0.00 0.00 31 1011.8